EW2546 Weather Reports


time (UTC)temp
C
wind
direction
speed
KPH
gust
KPH
rain 1hr
cm
rain 24hr
cm
rain mn
cm
humidity
%
barometer
mb
20260504231539 17 0 0.0 3.2 0.00 0.00 0.00 48 1005.4
20260504231025 17 0 0.0 3.2 0.00 0.00 0.00 47 1005.5
20260504230526 18 0 0.0 1.6 0.00 0.00 0.00 46 1005.3
20260504230037 18 0 0.0 1.6 0.00 0.00 0.00 44 1005.2
20260504225525 18 0 0.0 8.0 0.00 0.00 0.00 40 1005.2
20260504225025 18 0 0.0 8.0 0.00 0.00 0.00 44 1005.2
20260504224543 18 0 0.0 9.7 0.00 0.00 0.00 39 1005.1
20260504224025 19 0 0.0 9.7 0.00 0.00 0.00 39 1005.0
20260504223525 19 0 0.0 6.4 0.00 0.00 0.00 42 1005.0
20260504223038 19 0 0.0 6.4 0.00 0.00 0.00 40 1005.0
20260504222528 19 0 0.0 4.8 0.00 0.00 0.00 38 1005.0
20260504222025 19 0 0.0 3.2 0.00 0.00 0.00 40 1005.0
20260504221537 19 0 0.0 0.0 0.00 0.00 0.00 39 1005.1
20260504221026 20 0 0.0 4.8 0.00 0.00 0.00 40 1005.1
20260504220524 20 0 0.0 4.8 0.00 0.00 0.00 38 1005.0
20260504220044 20 0 0.0 4.8 0.00 0.00 0.00 37 1005.0
20260504215525 20 0 0.0 8.0 0.00 0.00 0.00 35 1005.0
20260504215029 20 0 0.0 8.0 0.00 0.00 0.00 39 1005.0
20260504214545 20 0 0.0 8.0 0.00 0.00 0.00 36 1005.1
20260504214025 20 0 0.0 8.0 0.00 0.00 0.00 36 1005.2
20260504213529 20 237 0.0 9.7 0.00 0.00 0.00 36 1005.2
20260504213040 20 0 1.6 12.9 0.00 0.00 0.00 37 1005.1
20260504212525 20 0 0.0 12.9 0.00 0.00 0.00 37 1005.1
20260504212029 21 255 1.6 12.9 0.00 0.00 0.00 35 1005.0
20260504211537 21 0 0.0 11.3 0.00 0.00 0.00 36 1005.0
20260504211025 21 283 0.0 16.1 0.00 0.00 0.00 35 1005.0
20260504210525 20 0 1.6 16.1 0.00 0.00 0.00 36 1004.9
20260504210041 20 0 4.8 16.1 0.00 0.00 0.00 36 1005.0
20260504205525 20 0 6.4 14.5 0.00 0.00 0.00 36 1005.0
20260504205024 20 0 3.2 11.3 0.00 0.00 0.00 39 1004.9
20260504204540 20 0 1.6 11.3 0.00 0.00 0.00 37 1005.0
20260504204024 21 0 0.0 9.7 0.00 0.00 0.00 37 1005.0
20260504203527 21 0 1.6 17.7 0.00 0.00 0.00 38 1005.0
20260504203040 21 284 0.0 17.7 0.00 0.00 0.00 37 1005.0
20260504202525 21 289 3.2 14.5 0.00 0.00 0.00 39 1005.1
20260504202024 21 0 0.0 12.9 0.00 0.00 0.00 40 1005.1
20260504201536 20 243 1.6 12.9 0.00 0.00 0.00 37 1005.1
20260504201025 20 281 1.6 12.9 0.00 0.00 0.00 38 1005.2
20260504200525 20 258 1.6 9.7 0.00 0.00 0.00 38 1005.3
20260504200045 20 297 0.0 14.5 0.00 0.00 0.00 40 1005.3
20260504195524 20 0 1.6 14.5 0.00 0.00 0.00 40 1005.4
20260504195027 20 303 1.6 9.7 0.00 0.00 0.00 41 1005.3
20260504194535 18 0 0.0 3.2 0.00 0.00 0.00 48 1005.5
20260504194025 18 0 0.0 9.7 0.00 0.00 0.00 47 1005.5
20260504193525 18 0 0.0 11.3 0.00 0.00 0.00 47 1005.6
20260504193040 17 0 1.6 11.3 0.00 0.00 0.00 50 1005.6
20260504192524 17 0 0.0 9.7 0.00 0.00 0.00 49 1005.7
20260504192027 18 307 0.0 9.7 0.00 0.00 0.00 49 1005.7
20260504191548 18 295 0.0 8.0 0.00 0.00 0.00 48 1005.6
20260504191024 18 0 0.0 8.0 0.00 0.00 0.00 50 1005.5
20260504190527 18 0 1.6 9.7 0.00 0.00 0.00 50 1005.5
20260504190038 17 0 0.0 11.3 0.00 0.00 0.00 52 1005.5
20260504185525 17 309 0.0 11.3 0.00 0.00 0.00 55 1005.7
20260504185025 16 0 0.0 3.2 0.00 0.00 0.00 54 1005.8
20260504184538 16 0 0.0 3.2 0.00 0.00 0.00 56 1005.7
20260504184025 15 0 0.0 3.2 0.00 0.00 0.00 58 1005.8
20260504183525 15 0 0.0 4.8 0.00 0.00 0.00 60 1005.8
20260504183043 15 0 0.0 4.8 0.00 0.00 0.00 60 1005.9
20260504182525 15 0 0.0 6.4 0.00 0.00 0.00 59 1005.9
20260504182024 15 301 0.0 11.3 0.00 0.00 0.00 59 1005.9
20260504181539 15 0 1.6 12.9 0.00 0.00 0.00 58 1005.9
20260504181027 15 0 3.2 12.9 0.00 0.00 0.00 55 1005.9
20260504180527 15 0 0.0 8.0 0.00 0.00 0.00 54 1005.9
20260504180041 15 0 0.0 12.9 0.00 0.00 0.00 54 1005.8
20260504175528 15 257 0.0 12.9 0.00 0.00 0.00 54 1005.9
20260504175024 16 266 4.8 12.9 0.00 0.00 0.00 51 1005.8
20260504174540 16 298 1.6 12.9 0.00 0.00 0.00 46 1005.9
20260504174024 16 309 4.8 14.5 0.00 0.00 0.00 43 1005.8
20260504173524 16 0 0.0 16.1 0.00 0.00 0.00 45 1005.8
20260504173042 16 280 4.8 17.7 0.00 0.00 0.00 42 1005.9
20260504172524 16 186 1.6 19.3 0.00 0.00 0.00 41 1005.5
20260504172025 16 282 4.8 19.3 0.00 0.00 0.00 42 1005.6
20260504171536 16 232 3.2 19.3 0.00 0.00 0.00 42 1005.5
20260504171028 16 277 6.4 19.3 0.00 0.00 0.00 40 1005.4
20260504170531 17 295 4.8 16.1 0.00 0.00 0.00 42 1005.3
20260504151023 15 0 1.6 16.1 0.00 0.00 0.00 50 1006.0
20260504150523 15 222 0.0 12.9 0.00 0.00 0.00 49 1006.1
20260504141023 12 211 4.8 16.1 0.00 0.00 0.00 58 1007.0
20260504140523 12 232 3.2 16.1 0.00 0.00 0.00 60 1007.1
20260504130526 11 193 0.0 11.3 0.00 0.00 0.00 65 1008.2
20260504110525 0 0 0.0 0.0 0.00 0.00 0.00 93 1008.6
20260504100525 0 0 0.0 0.0 0.00 0.00 0.00 93 1008.3
20260504081542 -2 0 0.0 0.0 0.00 0.00 0.00 92 1008.0
20260504081025 -2 0 0.0 0.0 0.00 0.00 0.00 92 1008.0
20260504080525 -2 0 0.0 0.0 0.00 0.00 0.00 92 1008.1
20260504050529 0 0 0.0 0.0 0.00 0.00 0.00 85 1007.9
20260504045525 0 0 0.0 0.0 0.00 0.00 0.00 85 1007.8
20260504045026 0 0 0.0 0.0 0.00 0.00 0.00 86 1007.8
20260504044536 0 0 0.0 0.0 0.00 0.00 0.00 85 1007.8
20260504044026 0 0 0.0 0.0 0.00 0.00 0.00 85 1007.9
20260504043526 0 0 0.0 0.0 0.00 0.00 0.00 85 1007.8
20260504043042 0 0 0.0 0.0 0.00 0.00 0.00 85 1007.9
20260504042526 0 0 0.0 0.0 0.00 0.00 0.00 84 1007.9
20260504042025 1 0 0.0 0.0 0.00 0.00 0.00 83 1007.9
20260504041541 1 0 0.0 0.0 0.00 0.00 0.00 84 1008.0
20260504041025 1 0 0.0 0.0 0.00 0.00 0.00 83 1007.8
20260504040525 1 0 0.0 0.0 0.00 0.00 0.00 82 1007.8
20260504040045 1 0 0.0 0.0 0.00 0.00 0.00 81 1007.8
20260504035529 1 0 0.0 0.0 0.00 0.03 0.00 81 1007.7
20260504035026 2 0 0.0 0.0 0.00 0.03 0.00 80 1007.7
20260504034541 2 0 0.0 0.0 0.00 0.03 0.00 79 1007.7
20260504034025 2 0 0.0 0.0 0.00 0.03 0.00 80 1007.7
20260504033526 2 0 0.0 0.0 0.00 0.03 0.00 79 1007.7
20260504033047 2 0 0.0 0.0 0.00 0.03 0.00 79 1007.6
20260504032525 2 0 0.0 0.0 0.00 0.03 0.00 78 1007.6
20260504032029 3 0 0.0 0.0 0.00 0.03 0.00 78 1007.6
20260504031535 3 0 0.0 0.0 0.00 0.03 0.00 79 1007.5
20260504031024 3 0 0.0 0.0 0.00 0.03 0.00 79 1007.5
20260504030525 3 0 0.0 0.0 0.00 0.03 0.00 78 1007.5
20260504030043 3 0 0.0 0.0 0.00 0.03 0.00 79 1007.5
20260504025526 3 0 0.0 0.0 0.00 0.03 0.00 79 1007.5
20260504025026 4 0 0.0 0.0 0.00 0.03 0.00 79 1007.5
20260504024545 4 0 0.0 0.0 0.00 0.03 0.00 78 1007.6
20260504024027 4 0 0.0 0.0 0.00 0.03 0.00 76 1007.6
20260504023525 5 0 0.0 0.0 0.00 0.03 0.00 74 1007.6
20260504023039 5 0 0.0 0.0 0.00 0.03 0.00 72 1007.6
20260504022525 5 0 0.0 0.0 0.00 0.03 0.00 70 1007.6
20260504022026 5 0 0.0 0.0 0.00 0.03 0.00 68 1007.5
20260504021548 5 0 0.0 0.0 0.00 0.03 0.00 67 1007.5
20260504021022 5 0 0.0 0.0 0.00 0.03 0.00 67 1007.5
20260504020525 5 0 0.0 4.8 0.00 0.03 0.00 66 1007.4
20260504020036 5 0 0.0 4.8 0.00 0.03 0.00 66 1007.5
20260504015525 5 0 0.0 4.8 0.00 0.13 0.00 66 1007.4
20260504015025 5 0 0.0 4.8 0.00 0.13 0.00 63 1007.4
20260504014536 5 0 0.0 4.8 0.00 0.13 0.00 66 1007.4
20260504014026 5 0 0.0 4.8 0.00 0.13 0.00 63 1007.4
20260504013525 6 0 0.0 6.4 0.00 0.13 0.00 64 1007.4
20260504013048 6 0 0.0 6.4 0.00 0.13 0.00 62 1007.3
20260504012526 6 0 0.0 6.4 0.00 0.13 0.00 62 1007.3
20260504012026 6 0 0.0 6.4 0.00 0.13 0.00 62 1007.2
20260504011541 6 0 0.0 6.4 0.00 0.13 0.00 60 1007.2
20260504011025 6 0 0.0 9.7 0.00 0.13 0.00 60 1007.1
20260504010527 6 0 0.0 9.7 0.00 0.13 0.00 60 1007.0
20260504010040 6 293 1.6 9.7 0.00 0.13 0.00 60 1007.0
20260504005525 6 0 0.0 11.3 0.00 0.18 0.00 59 1006.9
20260504005025 6 307 1.6 11.3 0.00 0.18 0.00 61 1006.9
20260504004546 6 260 0.0 11.3 0.00 0.18 0.00 59 1006.8
20260504004028 7 0 0.0 11.3 0.00 0.18 0.00 57 1006.6
20260504003525 7 290 1.6 9.7 0.00 0.18 0.00 56 1006.5
20260504003036 7 0 0.0 9.7 0.00 0.18 0.00 55 1006.4
20260504002525 7 245 0.0 6.4 0.00 0.18 0.00 55 1006.3
20260504002026 7 0 0.0 11.3 0.00 0.18 0.00 55 1006.2
20260504001537 7 0 1.6 14.5 0.00 0.18 0.00 54 1006.1
20260504001026 7 0 6.4 16.1 0.00 0.18 0.00 52 1005.9
20260504000524 7 318 3.2 16.1 0.00 0.18 0.00 54 1005.8
20260504000035 7 293 4.8 14.5 0.00 0.18 0.00 52 1005.7
20260503235525 8 311 4.8 14.5 0.00 0.20 0.00 50 1005.6
20260503235025 7 299 4.8 14.5 0.00 0.20 0.00 51 1005.6
20260503234541 8 273 0.0 12.9 0.00 0.20 0.00 53 1005.5
20260503234026 8 0 1.6 12.9 0.00 0.20 0.00 50 1005.4
20260503233526 8 303 3.2 12.9 0.00 0.20 0.00 51 1005.4
20260503233039 8 0 1.6 20.9 0.00 0.20 0.00 52 1005.3
20260503232525 8 0 6.4 20.9 0.00 0.20 0.00 46 1005.3
20260503232025 8 330 6.4 20.9 0.00 0.20 0.00 49 1005.1